Tracking 19976 objects as of 15-Nov-2019
Live streaming from Space Station
objects crossing your sky now
Track the group of recently launched Starlink satellites

NOAA 16 DEB

Track NOAA 16 DEB now!
10-day predictions


NORAD ID: 41375
Int'l Code: 2000-055JU
Perigee: 817.8 km
Apogee: 857.2 km
Inclination: 98.9 °
Period: 101.5 minutes
Semi major axis: 7208 km
RCS: Unknown
Launch date: September 21, 2000
Source: United States (US)
Launch site: AIR FORCE WESTERN TEST RANGE (AFWTR)

Note: This is SATELLITE DEBRIS
aabbcc
Your satellite tracking list
Your tracking list is empty




NASA's NSSDC Master Catalog

Two Line Element Set (TLE):
1 41375U 00055JU  19318.53333386  .00001511  00000-0  74968-3 0  9991
2 41375  98.9449  53.2708 0027383 243.2345 116.6028 14.18519251197307
Source of the keplerian elements: AFSPC